Location: Newark
(45.2500°N, 7.5833°E)
Time: 14:37:23
(UTC+00:00)

A-11 Canister half - Pass Details

Date: 26 January 2020
Orbit: 1524 x 1684 km, 47.3° (Epoch: 28 February)

Event Time Altitude Azimuth Distance (km) Brightness Sun altitude
Rises 22:05:44 0° 291° (WNW) 4,740 12.0 -56.7°
Reaches altitude 10° 22:08:47 10° 289° (WNW) 3,774 11.3 -57.1°
Enters shadow 22:10:36 18° 287° (WNW) 3,217 10.9 -57.3°
Maximum altitude 22:18:16 68° 209° (SSW) 1,713 - -58.2°
Drops below altitude 10° 22:28:05 10° 129° (SE) 3,889 - -59.3°
Sets 22:31:17 0° 127° (SE) 4,892 - -59.6°
